User: anonymous   Login
Location: Unspecified
(0.0000°N, 0.0000°E)
Time: 01:26:38
(UTC+00:00)
Language:

SWAYAM - Orbit

View from above orbital plane
View from above orbital plane
View from above satellite
View from above satellite

Ground track
Ground track

The orbit data is extracted from the following two-line orbital elements,

1 41607U 16040J   17266.42110082 +.00002020 +00000-0 +93471-4 0  9991
2 41607 097.4507 327.7012 0015880 093.5943 266.7109 15.21185138069538
Epoch (UTC): 23 September 2017 10:06:23
Eccentricity: 0.0015880
inclination: 97.4507°
perigee height: 491 km
apogee height: 513 km
right ascension of ascending node: 327.7012°
argument of perigee: 93.5943°
revolutions per day: 15.21185138
mean anomaly at epoch: 266.7109°
orbit number at epoch: 6953

The dashed part of the orbit path shows where the satellite is in the earth's shadow,  

DLR